Regional Weather Roundup
Issued by NWS

Home | Current Version | Previous Version | Graphics & Text | Print | Product List | Glossary Off
Versions: 1 2 3 4 5 6 7 8 9 10 11 12 13 14 15 16 17 18 19 20 21 22 23 24 25 26 27 28 29 30 31 32 33 34 35 36 37 38 39 40 41 42 43 44 45 46 47 48 49 50

000
ASUS43 KMPX 280110
RWRMN
WEATHER ROUNDUP FOR MINNESOTA
NATIONAL WEATHER SERVICE TWIN CITIES/CHANHASSEN MN
800 PM CDT SUN JUL 27 2014


NOTE: "FAIR" INDICATES FEW OR NO CLOUDS BELOW 12,000 FEET WITH NO
SIGNIFICANT WEATHER AND/OR OBSTRUCTIONS TO VISIBILITY. N/A MEANS
CURRENT SKY AND/OR WEATHER CONDITIONS ARE NOT AVAILABLE.

MNZ060>063-068>070-280200-
   Twin Cities Metro

CITY           SKY/WX    TMP DP  RH WIND       PRES   REMARKS
TWIN CITIES    MOCLDY    70  58  65 N14G22    30.04R
ST PAUL        PTCLDY    68  58  70 NE12      30.04R
CRYSTAL        CLOUDY    70  57  63 N13G18    30.04R
LAKEVILLE      MOCLDY    70  57  64 N15       30.04R
EDEN PRAIRIE   PTCLDY    70  59  68 N13       30.03R
SOUTH ST PAUL  PTCLDY    69  57  64 N12G17    30.04R
LAKE ELMO      FAIR      66  57  72 N12G17    30.05R
$$
MNZ001>005-007-008-013>017-022>024-027-028-280200-
   Northwest Minnesota

CITY           SKY/WX    TMP DP  RH WIND       PRES   REMARKS
BEMIDJI        CLOUDY    63  57  80 NW6       30.14S
HALLOCK        MOSUNNY   66  55  68 N6        30.18S
ROSEAU         CLEAR     66  57  72 NW7       30.16S
WARROAD        PTCLDY    66  57  72 CALM      30.16R
THIEF RVR FALL CLOUDY    64  55  72 N9        30.18R
CROOKSTON      CLOUDY    64  59  82 N6        30.19R
FOSSTON        CLOUDY    61  55  82 N6        30.17R
DETROIT LAKES  MOCLDY    63  57  82 NW14      30.17R
MOORHEAD       CLOUDY    66  61  82 N8        30.18S
PARK RAPIDS    CLOUDY    63  59  87 N6        30.14R
$$
MNZ006-009>011-018-025>026-280200-
   North Central Minnesota

CITY           SKY/WX    TMP DP  RH WIND       PRES   REMARKS
BAUDETTE       PTCLDY    65  54  67 NW6       30.15R
FLAG ISLAND    CLEAR     70  52  52 N10       30.13S
INTL FALLS     CLOUDY    67  52  58 N5        30.11R
WASKISH        CLOUDY    66  55  68 NW7       30.13S
BIG FORK       PTCLDY    63  55  77 NW1       30.12S
LONGVILLE      CLOUDY    64  57  77 N5        30.12R
GRAND RAPIDS   CLOUDY    63  54  72 NW9       30.11R
CRANE LAKE     MOCLDY    64  52  63 N6        30.10S
ORR            CLEAR     64  52  63 CALM      30.08R
COOK           CLEAR     64  54  68 CALM      30.10R
$$
MNZ012-019>021-037-280200-
   Northeast Minnesota

CITY           SKY/WX    TMP DP  RH WIND       PRES   REMARKS
DULUTH         PTCLDY    61  57  87 W7        30.07S
ELY            PTCLDY    63  52  67 NW5       30.08R
HIBBING        PTCLDY    62  54  74 NW6       30.09R
EVELETH        CLEAR     63  52  67 NW7       30.09R
DULUTH HARBOR  CLOUDY    64  55  72 SW7       30.07R
TWO HARBORS    CLEAR     63  57  82 CALM      30.04R
SILVER BAY     CLEAR     61  57  88 CALM      30.03R
GRAND MARAIS     N/A     50  46  86 CALM      30.04R
G MARAIS ARPRT   N/A     61  48  63 N5        30.07R
$$
MNZ029>031-032-039>041-046>048-054>057-064-280200-
   West Central Minnesota

CITY           SKY/WX    TMP DP  RH WIND       PRES   REMARKS
FERGUS FALLS   CLOUDY    64  55  72 NW12      30.16R
WHEATON        CLOUDY    63  55  77 NW10      30.18S
MORRIS         CLOUDY    66  57  72 NW15      30.14R
ALEXANDRIA     CLOUDY    64  60  87 N14G22    30.14R
ELBOW LAKE     CLOUDY    64  57  77 NW14G22   30.15R
WADENA         CLOUDY    63  57  82 N8        30.13R
GLENWOOD       MOCLDY    66  59  77 NW14      30.13R
APPLETON       CLEAR     68  55  64 NW14      30.14R
BENSON         CLEAR     66  57  72 N10G22    30.13R
ORTONVILLE     MOCLDY    64  54  68 N12G20    30.16R
MADISON        MOCLDY    68  57  68 NW15      30.15S
WILLMAR        FAIR      70  57  64 N13       30.13R
$$
MNZ033>034-036-042>043-049>051-058-059-280200-
   Central Minnesota

CITY           SKY/WX    TMP DP  RH WIND       PRES   REMARKS
ST CLOUD       CLEAR     70  58  65 N5        30.08R
SAUK CENTRE    CLOUDY    66  61  82 NW15G21   30.11R
PAYNESVILLE    CLOUDY    65  59  82 W12G20    30.10R
AITKIN         CLOUDY    66  57  72 N8        30.09R
PINE RIVER     CLOUDY    64  55  72 N7        30.15R
BRAINERD       CLOUDY    64  56  75 N8        30.11R
STAPLES        CLOUDY    64  57  77 N5        30.12R
LONG PRAIRIE   DRIZZLE   61  59  94 NW3       30.12R
LITTLE FALLS   CLOUDY    68  54  60 N5        30.09R
LITCHFIELD     CLOUDY    70  64  83 NW9       30.09R
BUFFALO        CLEAR     68  56  66 N9        30.08R
MAPLE LAKE     CLEAR     68  60  76 N6        30.08R
$$
MNZ037-044-045-052-053-280200-
   East Central Minnesota

CITY           SKY/WX    TMP DP  RH WIND       PRES   REMARKS
PRINCETON      CLEAR     66  59  77 N12       30.08R
MORA           PTCLDY    61  54  77 CALM      30.10R
CAMBRIDGE      CLEAR     68  55  64 N8        30.06R
RUSH CITY      MOCLDY    65  57  75 N7        30.08R
MOOSE LAKE     CLOUDY    59  55  88 NW3       30.07S
HINCKLEY       FAIR      63  55  77 N5        30.08S
CLOQUET        CLOUDY    61  57  88 W3        30.08S
MCGREGOR       CLOUDY    61  59  94 CALM      30.10S
$$
MNZ071>073-080-081-089-090-097-098-280200-
   Southwest Minnesota

CITY           SKY/WX    TMP DP  RH WIND       PRES   REMARKS
MONTEVIDEO     CLEAR     66  57  72 N17G23    30.13S
GRANITE FALLS  PTCLDY    67  58  72 NW13G21   30.14R
CANBY          MOCLDY    65  55  70 NW16      30.17R
MARSHALL       CLEAR     66  54  63 NW16G23   30.13R
REDWOOD FALLS  PTCLDY    70  58  65 NW15G24   30.09R
OLIVIA         PTCLDY    70  57  64 NW15G22   30.09R
PIPESTONE      MOCLDY    66  57  72 N10       30.16R
WINDOM         CLEAR     68  57  68 NW16G22   30.11S
WORTHINGTON    CLEAR     66  55  68 NW14      30.14S
JACKSON        CLEAR     68  55  64 NW9G17    30.11R
TRACY          PTCLDY    67  58  72 NW13G22   30.14R
SLAYTON        CLEAR     65  56  72 NW14G21   30.15R
$$
MNZ065>067-074>077-082>085-091>093-280200-
   South Central Minnesota

CITY           SKY/WX    TMP DP  RH WIND       PRES   REMARKS
MANKATO        CLOUDY    66  57  72 NW8       30.06R
NEW ULM        CLEAR     70  59  68 NW16G29   30.06R
ST JAMES       PTCLDY    72  57  60 NW14G21   30.09R
FAIRMONT       PTCLDY    70  55  60 NW13G21   30.08R
GLENCOE        MOCLDY    67  61  81 NW3       30.06R
FARIBAULT      MOCLDY    73  57  56 NW7       30.04R
OWATONNA       MOCLDY    70  57  64 NW10      30.03R
WASECA         CLOUDY    63  55  77 NW9       30.06R
ALBERT LEA     CLOUDY    70  59  68 NW7       30.04R
$$
MNZ078>079-086>088-094>096-280200-
   Southeast Minnesota

CITY           SKY/WX    TMP DP  RH WIND       PRES   REMARKS
ROCHESTER      PTCLDY    68  58  70 N16       30.02R
RED WING       PTCLDY    70  57  64 NE13G18   30.02R
STANTON        MOCLDY    72  59  64 N13       30.02R
DODGE CENTER   PTCLDY    66  61  82 N9        30.03R
WINONA         CLEAR     70  63  78 NW8       29.98R
AUSTIN         PTCLDY    70  61  73 NW12      30.01R
PRESTON        MOCLDY    68  62  81 N12       30.00R
$$
ABBREVIATIONS USED IN REMARKS
   TC - TEMPERATURES IN CELSIUS
  WCI - WIND CHILL INDEX
   HX - HEAT INDEX
  VSB - VISIBILITY
$$


USA.gov is the U.S. government's official web portal to all federal, state and local government web resources and services.